Wind_Speed
58 55 52 51 51 50 49 47 40 37 41 45 44 41 37 35 35 34 30 26 27 28 21 14 16 20 20 19 20 20 19 15 13 11 11 15 17 19 22 24 25 25 25 26 26 24 23 22 21 20 17 16 15 14 13 15 17 18 18 19 19 18 18 18 19 19 19 19 18 18 17 16 15 14 14 13 13 13 13 12 12 12 12 11 10 10 11
59 56 54 53 54 51 49 47 41 35 38 43 44 40 36 35 34 30 28 26 28 31 27 21 19 23 22 22 24 26 24 20 16 12 11 14 17 18 20 22 23 24 25 25 25 25 26 25 23 21 18 16 15 13 12 13 15 16 16 16 16 17 17 18 19 20 19 19 18 17 16 16 15 15 15 15 15 14 14 14 13 13 12 11 11 11 11
60 58 55 52 53 51 49 47 42 36 34 38 43 43 38 34 33 29 27 26 25 29 32 31 30 31 29 28 29 29 27 24 18 13 12 15 18 18 18 19 21 22 23 24 26 27 27 25 24 21 19 17 16 14 14 13 13 13 13 13 13 14 15 16 17 17 17 17 17 17 17 17 17 17 17 17 17 17 16 15 14 13 12 12 12 12 12
62 58 52 47 47 48 46 44 42 39 34 32 38 44 40 33 29 27 27 27 23 25 31 36 39 40 37 35 34 30 29 26 20 15 14 13 16 17 16 17 19 21 22 25 27 27 26 24 23 23 22 20 17 15 14 13 13 12 12 11 12 12 13 13 12 12 13 14 14 15 15 16 17 18 19 19 19 19 17 16 15 14 13 12 12 13 12
63 58 50 44 43 45 46 46 45 44 40 33 34 43 43 34 29 25 25 27 25 25 29 34 40 42 41 39 36 31 29 26 20 17 15 13 14 16 17 18 19 21 22 24 26 26 24 22 22 22 22 20 19 17 16 16 15 14 13 12 12 13 12 11 10 10 11 10 11 12 13 15 17 18 18 19 19 19 18 18 17 15 14 13 13 13 13
66 58 51 47 45 47 51 52 50 48 45 36 36 47 48 39 32 26 23 25 27 28 31 35 38 40 40 38 35 31 30 27 22 20 18 15 17 18 19 19 20 21 23 25 26 26 26 25 23 23 22 21 21 21 21 20 18 17 15 14 14 15 14 12 11 11 10 9 9 10 11 13 15 16 16 17 18 18 19 19 18 16 15 15 14 13 13
69 59 53 51 50 50 53 54 52 51 48 40 39 47 48 40 33 29 26 28 31 32 34 35 37 38 38 37 33 30 29 26 23 23 21 18 18 18 18 19 20 22 24 28 29 29 29 28 27 26 24 23 24 24 23 22 21 19 18 17 17 16 15 13 12 12 11 10 10 10 11 12 13 13 14 15 16 17 19 20 19 18 17 16 15 14 13
72 62 57 55 53 52 53 54 53 53 50 44 42 45 47 42 37 33 33 35 36 36 36 35 36 37 37 35 32 29 28 25 24 24 23 20 18 18 18 18 18 20 23 27 30 30 30 29 29 28 27 27 27 26 25 24 22 21 20 19 18 17 16 14 14 13 13 12 11 11 11 11 11 11 13 14 15 17 19 20 20 19 18 16 15 15 14
75 66 58 54 52 53 54 54 55 53 50 48 47 46 47 46 41 36 38 41 41 40 37 35 36 38 35 31 30 30 29 28 26 25 24 23 22 20 19 17 16 16 18 19 22 25 27 27 27 27 28 28 28 27 26 25 24 22 21 19 18 17 16 15 15 16 16 15 14 14 13 12 11 11 13 15 17 18 19 20 20 19 18 17 17 17 17
76 69 60 51 49 53 55 55 55 53 50 52 52 50 49 49 46 43 43 44 44 41 37 35 36 37 35 32 31 31 31 30 28 27 27 26 24 23 21 18 17 16 17 17 17 19 22 23 25 25 26 26 26 27 26 25 25 23 21 20 19 18 17 16 17 18 19 19 18 17 16 15 14 13 13 15 18 20 20 20 20 20 20 20 20 19 18
77 72 64 54 51 53 53 53 55 53 52 55 55 52 52 53 51 49 47 45 45 42 38 37 36 35 37 37 35 34 33 31 30 29 29 28 27 26 23 20 19 18 17 17 18 19 19 20 22 24 24 25 25 26 26 26 26 25 23 21 21 20 20 20 20 20 21 21 21 20 18 17 17 17 16 15 17 20 21 21 21 22 23 23 21 20 19
77 73 70 61 54 53 52 53 55 55 56 58 57 53 54 57 55 53 50 48 48 45 43 42 40 39 39 39 38 37 34 33 32 31 30 29 28 26 23 22 21 19 18 18 18 19 19 19 20 21 22 23 24 24 25 26 26 26 25 26 26 26 26 26 24 23 23 23 24 23 21 21 20 19 18 16 15 17 20 22 23 24 24 23 22 21 20
76 73 72 67 56 51 54 55 57 58 59 60 59 56 57 59 59 56 53 51 50 49 48 47 45 43 43 41 39 39 37 35 34 32 31 29 27 26 24 23 22 20 18 18 19 20 20 19 20 20 21 22 23 24 24 24 25 26 27 29 29 29 28 28 27 26 25 25 26 25 25 24 23 21 20 18 16 15 17 20 22 23 24 24 22 21 21
76 73 72 72 62 52 53 55 56 58 60 62 62 59 59 62 63 60 56 52 51 52 52 50 49 47 45 44 42 41 40 39 37 35 33 32 29 27 26 26 25 23 21 20 20 20 20 21 22 22 23 24 24 25 25 25 26 27 28 30 30 30 30 29 28 28 27 26 27 28 28 27 26 25 23 21 18 16 16 17 19 21 23 24 24 23 22
75 72 70 75 71 57 50 51 54 58 60 63 65 61 59 63 66 64 60 55 52 53 53 51 51 51 48 47 46 45 44 43 40 37 36 35 33 30 29 29 29 26 24 23 21 21 21 22 23 25 26 27 27 28 28 28 28 29 30 31 31 31 31 31 30 30 30 29 29 29 30 30 29 28 27 25 21 19 18 17 17 20 22 24 25 24 23
74 70 68 74 76 65 52 49 54 60 60 63 66 61 58 64 68 66 63 59 55 54 54 52 52 53 52 50 49 47 47 46 43 41 39 37 35 33 32 32 31 30 28 26 24 23 22 22 23 24 26 27 28 28 28 28 29 29 30 31 32 32 32 32 32 32 33 33 32 32 32 32 32 31 31 29 25 22 21 20 19 19 22 24 24 24 24
75 71 70 74 77 72 60 51 53 59 61 64 67 61 56 64 71 69 67 64 60 58 57 55 54 53 53 53 51 50 48 47 46 44 42 40 38 37 35 34 34 32 30 28 27 25 23 22 22 22 23 25 25 26 27 28 29 30 31 31 32 32 32 33 33 34 34 35 36 35 35 35 34 33 33 32 30 26 24 23 22 21 22 23 24 24 24
76 71 72 77 78 77 69 55 49 56 62 63 65 63 59 64 71 72 70 68 65 63 62 59 56 54 53 53 53 52 50 48 47 46 43 40 39 39 39 37 36 36 34 32 30 28 26 25 23 22 22 23 23 24 26 27 28 29 31 31 31 32 31 31 31 32 33 34 35 36 37 37 36 35 35 35 34 31 28 26 25 25 25 24 24 24 24
71 68 70 76 77 79 78 63 49 54 64 64 62 64 64 65 67 70 72 71 68 67 65 62 59 57 55 54 54 53 52 51 50 47 42 37 37 38 40 39 38 38 38 37 35 32 30 28 26 24 23 23 23 24 24 25 26 27 29 30 30 30 30 29 29 29 30 31 34 36 37 37 37 37 36 36 36 35 32 29 28 28 28 28 28 28 28
63 65 67 72 74 78 82 73 56 51 60 63 62 63 67 69 68 67 69 72 72 70 67 64 62 60 58 57 56 55 52 52 51 47 41 37 37 38 39 39 38 39 39 39 38 36 34 33 30 27 25 25 25 25 25 25 25 26 27 28 29 29 28 27 27 27 27 29 31 33 35 36 37 37 37 37 37 36 34 32 31 30 31 32 32 32 33
54 62 66 69 73 77 82 80 68 55 54 58 61 63 67 72 74 71 67 69 72 71 68 65 64 63 62 61 58 57 54 52 51 47 43 41 39 37 36 36 36 37 38 38 37 37 36 35 33 30 27 27 27 27 27 27 26 26 27 27 28 29 28 27 27 26 26 27 28 29 31 33 35 35 36 37 37 37 36 35 33 33 33 34 35 35 36
48 58 66 68 69 74 80 82 77 66 56 53 56 61 66 70 75 74 69 68 70 70 68 66 65 65 65 63 60 57 55 53 50 47 44 41 39 37 37 36 34 36 38 38 38 37 37 36 34 32 29 28 28 28 28 28 28 27 28 28 29 29 29 29 28 27 27 26 27 27 28 30 32 33 34 35 36 37 37 36 35 34 35 35 36 36 37
43 53 65 70 69 71 75 78 78 74 66 57 52 53 59 66 71 72 71 70 70 70 68 67 66 66 65 64 61 59 57 54 52 48 45 43 40 38 39 39 37 36 38 39 40 39 38 36 35 33 31 30 29 29 29 29 29 29 29 29 29 29 29 29 29 29 29 29 29 29 29 29 30 31 33 34 35 36 36 37 36 36 36 37 38 38 39
43 49 60 70 73 73 72 71 72 73 71 68 62 55 53 57 62 68 72 73 73 72 69 67 66 67 66 65 63 61 59 56 53 50 48 47 45 41 40 41 40 38 39 40 40 40 40 38 36 35 33 32 31 30 30 30 30 30 30 30 30 29 29 29 29 30 30 31 31 31 31 31 31 32 33 34 36 36 37 37 38 38 38 39 40 41 42
44 49 57 66 74 77 75 71 69 68 65 64 64 61 57 54 54 59 68 75 75 73 70 67 65 66 67 66 65 63 61 57 55 52 50 50 50 46 44 42 41 39 40 41 40 40 41 40 38 36 35 34 33 32 31 31 31 31 31 31 31 30 30 30 31 31 32 32 32 33 33 33 33 33 34 35 37 37 38 39 39 39 40 41 42 43 44
48 50 56 63 69 75 78 76 72 70 67 64 61 59 59 57 54 53 58 66 72 73 71 68 66 65 66 66 65 63 61 58 56 55 53 54 54 53 50 48 46 43 42 42 42 41 41 41 40 38 37 36 35 34 33 32 32 32 32 31 32 32 32 32 32 32 33 33 34 34 34 35 35 35 36 37 38 38 39 40 41 41 42 43 44 45 45
53 55 59 66 68 69 74 77 76 75 75 71 66 63 61 60 57 55 53 56 62 65 66 65 65 65 65 65 65 64 62 59 58 57 57 58 59 58 56 54 51 47 43 42 43 42 41 42 42 41 39 37 36 35 35 34 33 33 33 33 33 33 33 34 34 34 34 35 35 35 35 36 36 37 37 38 39 39 40 41 41 42 43 44 44 45 46
54 55 58 65 68 68 70 73 73 74 77 77 73 69 67 64 61 58 57 57 58 61 63 62 61 61 62 62 62 62 62 61 60 60 60 61 62 61 59 55 52 49 45 43 43 42 41 43 44 43 42 40 38 37 37 36 35 35 35 34 34 34 35 36 36 36 36 36 37 37 37 37 37 38 38 39 39 40 40 41 42 42 43 44 44 45 45
60 61 61 62 62 64 69 71 69 68 71 75 76 73 70 68 64 61 61 61 60 62 65 67 66 65 65 64 64 64 65 64 64 64 64 64 64 62 57 53 51 48 45 44 43 42 41 43 44 45 44 43 41 40 39 38 37 37 37 37 37 37 37 38 38 38 38 38 39 39 39 39 39 39 39 40 40 40 41 41 42 43 43 44 44 45 45
46 57 66 69 67 65 67 70 70 68 66 68 70 71 71 70 67 64 65 66 65 64 66 69 70 70 68 66 66 70 73 73 70 69 68 66 64 60 55 51 50 48 45 43 43 42 42 43 44 45 45 45 44 43 42 41 40 39 39 40 40 40 40 40 40 40 39 39 39 40 40 40 40 40 41 41 41 41 42 43 43 44 44 45 45 46 46
22 31 46 63 73 75 71 69 70 72 70 68 67 67 68 69 70 69 68 68 68 68 68 67 66 66 64 62 60 64 71 75 74 70 68 65 62 58 53 48 47 47 45 42 41 41 42 42 43 44 45 45 45 45 44 43 43 42 42 42 43 43 43 43 43 43 42 41 41 41 41 41 41 41 42 42 42 43 44 44 45 45 45 46 46 46 47
20 19 24 38 57 71 76 76 74 74 74 73 71 70 69 69 70 72 72 70 69 69 70 69 66 65 65 63 58 55 58 62 62 59 57 56 55 55 51 47 45 45 44 42 41 40 41 41 42 42 42 43 44 45 45 45 45 45 44 45 45 45 45 45 45 45 44 43 43 43 42 42 42 42 43 43 44 45 45 46 46 47 47 47 48 48 48
20 22 21 24 34 50 65 75 79 79 78 77 76 74 74 73 72 73 74 73 70 68 69 70 70 68 67 66 63 58 55 55 53 51 50 48 47 47 47 45 44 44 44 43 42 41 41 41 41 41 41 42 43 44 44 45 46 46 47 47 47 47 47 47 47 47 46 46 46 45 45 44 44 44 45 45 45 46 47 47 48 49 49 49 50 50 51
11 19 22 21 23 30 43 58 71 79 82 83 82 80 78 78 76 75 75 75 73 71 70 71 72 71 70 70 69 67 63 59 56 55 54 52 49 48 47 45 44 43 43 42 42 42 41 42 42 43 43 43 43 44 45 45 46 47 48 49 49 49 49 49 49 49 49 49 48 47 47 47 47 47 47 48 48 49 50 50 51 51 51 52 52 52 52
5 9 17 22 23 23 28 38 52 66 76 83 87 87 86 84 82 81 79 78 77 76 75 73 73 72 71 70 70 71 70 66 62 60 58 57 55 54 52 51 49 48 47 46 45 45 45 45 45 46 47 46 46 46 48 48 48 48 49 49 50 51 51 51 51 51 51 51 51 51 50 50 51 51 51 52 52 53 53 54 54 54 54 54 54 54 54
8 3 9 17 20 21 23 27 34 46 60 72 80 85 87 88 88 87 86 85 83 81 80 79 78 77 75 72 72 72 72 71 69 67 64 62 61 60 58 57 56 55 54 53 53 53 53 52 52 52 53 52 51 51 52 52 51 51 52 52 53 54 54 53 53 53 53 52 53 53 53 53 54 54 55 55 56 56 56 56 56 56 56 56 56 56 57
11 8 5 10 14 16 20 22 24 28 37 50 62 71 77 81 84 86 88 89 88 86 84 84 84 83 81 78 76 74 73 72 71 70 68 67 66 64 62 61 60 60 59 58 57 57 57 57 56 55 55 54 53 54 55 55 55 56 56 57 57 57 58 58 57 56 55 55 55 55 56 56 56 57 58 58 58 59 59 59 59 59 59 59 59 59 59
14 10 5 7 8 10 13 18 22 24 27 31 39 49 59 67 73 77 80 83 85 86 86 86 85 85 83 80 77 75 72 71 69 68 67 66 65 65 63 61 60 60 59 58 57 57 57 58 57 56 56 56 56 56 57 58 59 61 61 61 62 61 60 60 60 59 59 59 59 59 59 60 60 60 60 60 60 60 60 61 61 61 61 62 62 62 62
16 12 6 2 4 4 5 8 14 20 24 25 25 29 37 47 57 64 70 74 77 79 80 81 81 80 79 78 75 73 71 69 67 66 66 64 64 63 62 60 58 57 56 55 55 55 55 56 56 56 55 55 56 57 58 58 59 60 60 61 63 64 64 63 63 63 62 62 63 63 63 63 62 62 62 62 62 62 62 63 63 63 63 64 64 64 64
15 14 10 6 2 2 4 5 5 9 14 18 20 20 22 29 37 47 57 66 71 72 72 73 73 73 73 72 71 69 67 67 66 65 64 64 63 63 61 59 57 56 54 54 53 51 49 50 51 53 56 58 58 56 55 55 56 58 59 58 58 60 62 63 64 65 65 65 64 64 64 64 63 63 63 63 64 64 65 65 65 65 65 65 65 66 66
11 11 11 10 8 5 2 2 5 6 7 10 15 17 18 20 24 30 41 53 61 65 67 68 68 68 68 67 66 65 64 64 64 63 62 62 62 62 62 60 58 57 55 54 52 49 46 45 43 43 49 60 64 60 57 58 60 61 61 59 56 57 58 59 60 62 64 66 66 66 65 65 65 65 65 66 66 67 67 67 67 67 67 68 68 68 68
10 8 8 8 7 8 9 3 5 9 6 5 9 13 17 21 23 24 28 36 45 52 58 61 62 64 64 65 65 65 64 63 62 62 62 62 61 61 61 61 59 58 56 55 53 50 48 47 45 40 41 49 57 57 56 59 60 59 56 54 53 53 53 54 55 58 61 63 65 66 67 66 66 66 67 67 68 68 68 68 68 69 69 69 69 70 70
11 9 6 5 4 6 7 2 6 6 4 4 5 8 12 18 21 21 20 23 29 37 44 47 47 49 52 56 59 62 63 62 60 60 61 62 62 61 61 60 60 58 57 56 55 53 52 54 56 52 45 42 47 52 53 53 53 52 51 49 49 49 48 50 53 56 57 58 60 62 64 65 65 66 66 67 67 67 68 68 68 68 69 69 69 69 69
11 9 7 5 3 1 2 4 8 11 13 10 6 7 8 12 16 17 16 16 18 24 32 38 39 38 39 42 47 52 56 59 59 58 57 58 59 59 59 58 57 57 57 57 58 59 58 59 64 66 59 48 45 48 52 52 50 50 50 51 51 52 52 53 55 56 56 56 56 57 59 60 61 62 64 64 65 65 65 65 65 65 65 65 65 65 65
11 10 9 7 4 5 4 5 9 12 14 12 11 12 12 13 14 16 18 18 18 20 24 29 32 34 34 34 35 38 44 50 53 54 53 53 52 52 53 52 49 49 52 55 58 60 62 62 65 68 66 57 48 45 47 50 54 57 60 61 62 62 61 58 56 55 54 54 55 55 56 57 57 58 59 60 60 60 60 60 60 60 60 60 61 61 61
11 10 9 9 6 3 4 6 7 8 9 12 15 17 17 18 19 20 21 22 25 27 28 28 30 33 34 33 33 33 34 38 42 44 47 48 48 47 48 49 46 43 46 50 54 58 61 63 64 65 66 63 59 54 50 50 51 54 57 59 58 56 54 53 52 51 51 50 51 52 52 52 52 52 53 54 55 56 57 57 58 59 59 60 60 60 60
14 12 10 9 8 6 2 2 5 7 9 11 14 16 17 20 23 25 26 28 31 34 35 35 35 35 33 33 35 37 36 37 39 40 42 44 47 48 51 53 52 48 46 46 48 52 58 62 65 65 64 62 61 59 55 51 48 47 46 46 45 44 44 45 47 47 47 46 46 47 49 49 50 50 51 51 52 54 55 57 58 59 60 60 60 60 60
13 13 12 10 9 8 7 4 2 3 6 9 11 13 15 18 21 25 29 32 35 36 37 38 38 36 32 30 33 35 37 38 41 42 42 42 43 46 50 54 56 54 51 47 45 46 49 54 59 63 64 63 62 60 56 53 50 48 46 44 43 42 42 43 43 43 44 44 44 45 46 47 47 48 48 48 49 50 52 54 55 56 57 58 59 59 59
14 12 11 10 10 9 10 9 7 5 4 5 8 11 14 16 18 20 23 28 33 38 40 42 42 40 37 34 33 33 33 35 38 41 43 44 44 45 48 52 55 58 58 55 52 49 48 47 48 50 53 57 59 59 57 54 51 49 47 45 44 43 42 42 41 41 42 42 43 43 43 43 44 45 46 47 48 49 51 52 53 54 54 55 56 56 56
16 14 12 11 10 10 10 11 10 9 8 6 6 7 10 14 17 19 20 21 25 29 34 37 38 39 38 38 36 34 32 31 32 34 36 39 40 40 42 45 49 53 57 58 57 56 54 51 48 45 44 46 48 49 49 48 45 43 42 41 41 41 41 41 40 40 40 40 41 42 42 43 44 45 46 47 47 48 48 49 50 50 51 51 51 52 52
18 16 15 13 12 10 10 11 11 11 11 10 9 8 8 9 12 16 19 21 22 23 25 28 30 32 34 35 35 34 32 31 30 30 32 34 35 35 35 36 38 41 44 47 48 50 50 50 49 47 45 44 43 43 42 41 41 40 39 38 38 39 39 40 40 40 40 40 40 41 41 41 42 44 45 46 47 47 48 49 49 49 50 50 51 51 52
20 19 17 16 14 13 12 11 11 11 12 13 12 12 11 10 9 11 13 17 20 22 24 24 25 26 27 29 31 31 31 30 29 30 30 32 34 35 35 35 35 37 38 39 40 41 42 43 44 45 44 43 43 42 41 41 41 40 40 39 39 40 40 40 41 42 42 42 42 41 41 41 42 43 44 46 47 47 48 50 50 51 51 51 52 52 52
Wind_Direction
190 189 187 192 198 200 201 199 195 198 206 211 217 220 220 221 221 217 214 210 200 195 191 186 206 221 225 229 230 226 227 230 227 224 218 213 207 198 194 195 196 197 201 208 210 205 199 194 189 184 182 184 184 182 181 182 183 186 189 193 197 199 199 201 204 206 207 208 209 210 212 211 210 212 214 215 218 220 222 225 229 232 234 236 241 248 255
185 184 185 192 197 199 202 201 194 192 200 207 213 218 218 220 221 217 215 214 203 194 191 187 202 219 219 219 228 234 238 239 232 224 221 217 211 202 193 192 194 199 206 208 204 200 198 196 190 185 183 184 185 184 180 174 172 175 177 181 186 188 189 193 199 203 205 207 209 211 211 212 213 215 217 220 222 223 223 225 229 232 233 236 241 246 249
182 182 185 192 197 199 202 201 197 195 202 206 209 212 214 216 218 215 212 214 207 199 197 195 203 216 219 221 228 234 239 241 236 226 222 216 211 206 197 188 187 194 201 201 196 195 197 195 190 186 183 183 187 189 183 175 173 172 168 170 173 174 179 189 195 199 203 206 210 212 213 215 217 219 221 223 224 225 227 228 229 230 231 233 239 243 244
180 180 183 189 196 199 201 201 200 200 204 208 207 207 208 208 210 212 208 206 207 206 204 205 209 215 219 222 228 235 239 241 236 225 221 215 208 206 200 189 182 182 189 193 192 192 194 193 190 186 185 184 187 189 187 183 185 182 175 172 173 174 181 190 193 197 203 208 213 218 221 225 226 227 228 229 229 229 229 230 229 228 227 229 234 239 241
179 178 181 187 190 195 198 198 200 201 203 208 205 202 203 199 197 204 205 199 201 209 211 211 214 217 220 222 226 230 235 236 231 223 218 211 204 202 200 196 186 177 180 187 190 192 194 196 193 189 187 185 184 188 192 194 195 193 187 183 183 185 190 193 192 195 201 207 214 221 227 232 235 237 238 239 238 236 232 230 229 227 225 226 229 236 239
180 178 183 185 183 188 194 195 198 199 199 204 201 197 197 193 187 192 199 197 201 212 216 216 217 219 221 224 223 223 228 230 226 220 216 209 205 203 201 202 197 187 181 181 186 190 194 198 198 194 191 188 187 190 194 197 198 198 195 194 195 196 198 198 198 201 204 207 213 221 228 233 238 242 244 244 243 239 234 231 229 228 227 224 223 229 233
181 180 185 184 178 183 190 191 195 196 193 194 197 195 193 188 181 181 190 199 206 213 217 220 223 225 225 226 225 221 225 226 217 214 216 212 207 206 203 200 199 195 188 182 183 188 192 197 200 198 194 194 196 196 195 196 198 198 197 197 199 203 205 205 209 214 219 221 223 226 230 234 238 243 246 246 242 237 233 228 226 227 226 223 221 223 228
184 182 185 182 177 182 187 188 192 194 190 189 191 192 191 185 177 180 193 203 204 204 207 214 224 229 227 227 225 220 218 216 208 208 215 215 208 205 205 199 194 195 192 186 184 189 194 198 200 198 195 197 200 201 199 199 200 200 199 199 201 206 209 212 217 223 229 235 239 241 240 237 236 240 245 246 242 236 230 225 222 224 226 225 222 219 223
189 187 184 180 179 183 183 183 188 191 189 188 186 189 190 183 176 187 202 205 201 200 202 210 221 228 228 224 222 218 214 214 212 210 214 215 210 206 208 209 204 203 203 197 191 193 198 201 204 202 200 199 200 202 202 203 204 205 204 204 206 210 212 216 222 227 232 238 243 248 250 247 242 241 243 244 243 238 231 224 222 223 225 225 222 219 220
193 189 183 179 180 182 179 179 183 185 187 187 183 185 188 182 181 196 207 207 205 204 204 208 217 225 228 222 217 219 219 219 219 218 215 214 213 211 212 217 216 214 215 213 208 205 204 205 207 208 207 205 204 204 205 207 209 211 210 210 212 215 218 221 224 228 233 238 243 247 253 255 252 249 247 245 244 241 236 229 224 221 222 222 222 220 220
196 191 187 184 182 179 176 177 181 181 184 186 183 182 186 185 188 200 207 207 206 202 198 202 208 217 224 221 218 221 223 221 221 221 217 215 216 215 216 219 221 221 220 220 220 218 214 212 210 209 210 210 209 208 209 211 213 215 216 218 221 222 225 227 227 227 230 236 242 246 252 257 259 258 257 254 247 242 239 235 229 225 223 222 221 221 222
198 194 192 191 184 177 175 176 179 180 182 185 183 184 186 187 192 200 204 205 204 197 194 197 200 207 216 218 218 220 220 220 220 220 219 219 219 218 220 223 225 226 226 226 227 225 222 219 217 214 213 214 215 215 215 214 216 218 220 223 226 227 229 230 229 228 228 230 236 242 248 252 256 258 261 263 257 247 242 239 234 230 226 223 221 221 223
200 198 196 195 188 179 176 178 180 181 182 184 186 188 187 187 194 201 202 204 203 199 198 198 196 201 210 213 213 215 216 218 220 220 220 223 223 221 222 225 229 229 228 227 227 226 223 220 219 217 216 216 218 220 221 221 221 222 224 227 229 231 232 232 232 232 231 229 231 235 241 247 250 253 256 260 261 255 249 245 240 234 228 222 219 220 223
202 202 200 196 191 184 179 179 180 181 183 184 186 190 189 188 194 201 202 202 204 203 203 202 197 198 205 208 210 212 214 218 222 222 222 225 225 224 224 227 230 229 226 224 222 222 219 216 215 215 212 212 214 216 219 221 223 225 228 231 233 235 236 236 236 236 236 233 231 231 234 240 245 249 252 254 255 254 252 251 247 238 229 224 221 220 222
202 205 204 199 197 191 182 179 179 179 183 185 186 190 192 191 195 201 201 202 205 205 206 206 202 200 203 206 210 212 213 217 223 226 227 228 229 228 227 229 231 228 224 221 219 217 216 213 213 214 212 211 211 212 215 217 220 222 226 230 233 235 236 237 237 236 236 235 234 232 232 234 238 243 247 249 251 252 251 250 248 242 235 231 227 223 222
201 205 206 203 199 195 188 183 181 179 182 185 186 190 193 192 194 199 201 201 204 206 208 210 209 207 206 207 210 212 213 216 221 225 229 230 233 234 231 230 232 230 224 220 218 215 213 210 210 213 215 215 215 215 216 218 219 221 223 225 228 230 231 232 232 231 230 229 230 231 232 232 233 237 241 244 247 249 249 247 243 240 238 236 233 229 227
200 204 206 204 201 199 195 188 182 180 181 184 187 189 190 189 193 198 200 202 204 206 209 213 214 212 211 211 213 215 215 215 218 222 226 230 234 236 235 232 233 233 229 225 222 220 216 213 211 212 214 217 218 218 218 218 220 223 224 226 228 229 230 230 230 230 229 228 229 230 230 230 231 233 237 242 244 245 247 246 243 239 238 238 236 235 234
199 203 205 205 204 203 201 194 184 180 181 183 187 189 187 186 191 196 199 201 204 206 210 214 216 216 216 215 216 217 217 218 220 223 226 229 233 234 233 232 232 234 234 230 227 226 224 221 219 219 218 219 220 221 221 220 220 222 224 227 229 230 232 232 232 232 232 230 230 231 230 230 229 230 233 238 241 242 243 245 244 242 240 240 240 239 238
196 200 203 206 208 208 205 200 189 182 182 184 187 188 187 185 188 193 197 200 203 206 210 214 216 217 217 217 218 219 219 220 222 223 225 229 231 229 228 228 229 232 234 234 232 231 230 228 227 227 227 226 224 224 225 223 222 222 223 225 227 229 230 231 230 231 231 231 230 231 231 230 228 229 231 234 237 240 242 245 246 245 243 243 243 243 243
191 197 201 206 210 210 208 205 200 189 185 186 188 188 187 186 188 191 195 198 201 205 208 211 214 216 217 218 220 222 222 223 223 223 224 227 228 225 223 224 226 228 232 233 233 232 231 231 231 229 229 230 229 228 228 227 226 225 225 226 227 227 227 228 228 229 230 230 230 230 231 231 229 229 230 232 234 237 240 244 246 246 246 245 244 244 245
189 194 200 205 211 212 210 209 208 200 190 189 190 189 187 186 188 192 195 196 200 204 207 208 211 214 217 220 221 223 224 225 224 225 224 223 225 228 227 226 226 228 232 234 234 233 232 233 233 231 229 228 229 228 229 229 228 228 229 229 230 230 230 229 229 230 231 233 234 234 234 233 232 231 231 232 234 235 238 242 244 245 246 246 246 246 247
193 194 199 204 209 213 212 212 212 209 200 194 193 193 191 188 189 192 194 196 199 203 206 208 210 213 218 221 222 223 224 225 226 226 223 221 225 232 233 231 230 230 231 234 236 236 235 235 235 234 231 229 228 228 229 230 230 230 231 231 231 232 232 233 233 233 233 234 236 236 236 236 236 236 236 236 237 237 239 241 243 245 246 247 247 248 249
200 198 200 203 207 212 214 214 215 215 213 209 204 199 195 192 192 193 194 195 197 201 205 209 211 214 217 220 221 221 223 225 227 227 223 220 226 234 236 236 236 235 232 233 236 238 238 238 237 237 235 232 230 230 230 231 231 231 232 233 234 234 235 235 236 236 236 236 236 237 237 237 237 239 240 240 241 241 241 242 243 244 246 248 249 250 251
206 204 204 205 207 211 214 215 216 218 219 220 219 216 209 201 197 195 194 195 197 200 204 207 210 213 216 218 220 220 222 224 227 228 226 225 228 236 240 240 240 238 234 233 234 237 240 241 239 239 238 235 234 233 232 233 234 234 234 235 236 237 238 238 239 239 238 238 239 239 240 239 239 240 241 242 243 244 244 245 245 245 246 248 249 250 252
210 210 210 209 209 211 214 217 218 219 221 223 224 225 223 218 211 203 197 196 198 201 204 206 208 211 215 217 220 221 223 225 227 229 231 232 234 239 242 242 242 242 239 235 234 235 239 242 243 242 241 239 238 236 236 236 237 238 237 237 238 239 240 241 241 241 241 241 240 241 242 242 242 242 242 243 244 245 246 247 248 249 249 250 250 252 253
213 214 215 214 212 213 216 220 222 223 225 227 228 228 228 227 226 221 211 203 200 201 204 206 208 211 214 218 221 224 226 228 229 231 234 237 239 242 245 245 246 246 243 238 235 234 235 240 243 244 244 242 241 240 239 239 240 241 240 240 239 240 241 242 243 243 243 243 243 243 243 244 245 245 245 245 246 247 248 248 249 250 251 252 253 254 256
217 218 220 218 215 215 217 221 224 227 229 230 231 232 231 230 230 231 229 221 213 208 207 208 209 211 215 218 222 225 228 230 232 234 236 239 242 246 249 249 248 247 245 241 237 235 234 236 240 243 244 244 244 243 241 241 241 242 242 242 241 241 242 242 243 244 245 245 245 245 245 245 246 246 246 247 248 248 249 250 251 251 253 254 255 256 257
225 224 224 221 219 219 219 220 223 227 230 232 233 234 234 233 232 231 232 232 228 222 219 217 216 216 217 220 223 226 229 232 234 235 237 240 244 249 253 252 246 243 244 243 239 236 234 234 236 240 243 245 246 246 244 243 242 242 242 242 242 242 242 242 243 244 245 245 246 246 246 247 248 248 248 249 249 250 250 251 252 253 254 255 257 258 259
232 231 230 226 224 223 222 220 221 224 228 231 233 234 234 234 233 231 231 231 231 229 228 226 226 226 226 227 230 232 233 234 236 237 239 242 246 250 253 251 244 240 243 243 239 237 236 234 234 236 240 243 245 246 246 245 244 243 243 243 242 242 242 242 243 244 245 246 247 248 249 250 251 251 252 252 252 252 253 253 254 255 256 257 258 259 260
235 234 233 231 228 228 226 223 222 222 224 227 230 231 232 233 232 230 227 225 225 226 227 227 228 229 230 230 233 236 236 235 236 238 241 244 246 247 249 248 242 239 241 241 238 236 237 236 234 234 236 240 243 246 247 248 247 245 244 245 245 245 245 245 245 246 247 248 250 251 253 254 254 255 256 257 256 256 255 255 256 256 257 258 259 259 260
229 233 234 232 229 228 226 225 224 223 224 224 225 225 227 228 228 228 226 222 219 220 221 221 222 223 224 227 231 234 235 235 236 239 241 242 242 243 244 244 240 236 237 238 236 235 236 236 236 235 236 237 240 243 245 248 248 248 247 247 247 248 248 249 249 250 251 252 253 254 255 256 256 257 257 257 257 257 257 257 258 258 258 259 259 260 261
225 227 233 234 230 227 224 223 224 224 224 224 224 223 222 222 222 223 224 223 221 219 218 219 218 219 221 224 226 228 229 230 231 233 234 235 236 237 239 239 237 235 235 235 234 234 234 234 235 236 236 237 239 241 244 246 247 248 249 249 249 250 251 251 252 252 253 254 254 255 256 256 257 257 257 256 256 256 257 257 258 258 259 259 260 260 260
229 224 227 232 233 228 224 222 222 223 224 225 225 223 221 220 219 219 220 221 221 219 218 219 220 219 219 220 221 222 225 228 229 230 231 232 233 235 236 238 237 237 237 236 236 236 237 238 238 238 238 238 239 240 242 244 247 248 249 250 250 251 252 252 253 253 254 254 254 255 256 257 257 257 257 257 257 257 257 258 258 258 259 259 260 260 261
242 227 224 224 226 225 222 221 221 222 223 225 226 226 224 222 220 220 220 220 220 220 220 221 222 221 220 220 221 224 228 232 233 234 235 236 236 236 237 238 239 239 239 239 238 238 239 241 242 243 243 243 243 244 244 244 246 248 250 251 252 252 252 252 253 253 254 254 254 254 255 255 256 256 256 257 257 257 257 258 258 258 259 260 261 262 263
308 233 222 221 220 218 217 218 220 221 222 223 225 227 227 226 224 224 224 224 223 223 223 224 224 224 223 223 224 226 229 232 234 235 236 237 238 238 239 240 241 242 243 244 245 245 245 246 248 250 249 248 248 250 250 250 249 249 250 251 252 253 253 253 253 253 253 254 254 255 255 255 256 256 257 257 258 258 258 259 259 260 261 262 263 264 265
347 306 221 218 220 219 216 215 217 220 221 222 223 223 225 226 227 228 228 228 227 226 225 227 229 229 230 230 231 233 234 236 237 238 238 239 239 240 240 241 243 244 245 248 251 253 253 253 253 254 254 254 253 253 254 254 254 253 253 252 252 252 252 252 253 253 253 254 254 254 255 256 256 256 257 257 258 258 259 260 261 262 263 263 264 265 266
359 343 267 224 219 219 217 216 215 217 220 222 223 223 223 222 223 225 228 230 230 230 230 231 233 235 236 238 239 240 241 241 242 243 243 243 243 243 243 244 245 246 247 249 251 253 255 256 255 255 256 256 255 255 255 256 255 254 253 253 252 251 251 251 251 252 252 253 254 254 254 255 255 255 256 257 258 259 260 261 262 263 264 264 265 266 266
11 357 310 242 223 221 220 219 218 219 220 221 223 225 226 224 221 221 223 226 229 231 232 233 235 237 239 241 242 242 243 244 244 245 246 246 247 247 247 247 248 249 250 250 251 252 254 256 256 257 258 258 258 257 257 256 256 254 253 251 250 250 250 250 250 250 251 251 252 253 253 254 255 255 256 257 259 260 261 262 263 263 264 265 266 267 267
14 13 360 265 219 224 227 222 222 224 226 225 223 223 224 225 224 223 222 221 223 226 229 232 234 236 238 240 241 242 243 244 245 245 246 247 248 249 249 249 250 251 252 253 254 254 255 257 258 257 257 256 257 258 258 257 256 255 253 251 248 247 246 247 247 248 249 250 250 251 252 254 255 256 257 259 260 260 261 262 263 264 264 265 266 267 268
14 17 23 35 62 181 198 205 218 225 225 223 219 215 215 219 223 225 225 222 220 220 222 224 227 230 233 236 237 238 239 240 241 243 245 246 248 249 250 250 250 250 251 252 253 255 257 257 256 256 256 254 253 252 251 250 250 249 248 248 248 247 245 244 244 245 247 248 249 251 252 253 255 256 257 258 259 260 261 261 262 263 264 266 267 268 269
18 8 10 20 26 25 1 228 202 188 187 198 202 203 205 211 217 223 226 224 221 219 218 219 220 222 225 228 230 231 232 234 236 238 240 242 244 245 246 247 246 246 246 246 246 247 248 243 235 232 237 242 243 241 239 238 240 243 244 246 250 253 251 249 247 246 247 247 248 249 251 252 253 255 256 257 258 259 260 261 262 263 264 266 267 268 269
40 23 3 0 4 0 354 345 174 165 161 180 197 203 209 211 212 217 224 225 224 221 219 218 219 220 221 223 224 225 226 228 230 231 233 234 237 239 240 241 241 240 240 239 238 238 238 233 222 213 214 222 227 229 229 230 234 239 242 245 249 251 251 250 250 249 247 247 247 247 248 250 251 252 253 255 256 258 259 260 262 263 264 265 266 267 268
37 48 38 16 359 349 345 324 187 198 251 256 207 204 213 209 203 204 212 219 222 222 219 215 214 218 221 223 222 222 222 223 224 226 228 229 230 232 234 235 236 235 235 234 232 231 229 226 225 228 233 234 233 233 233 233 234 238 240 242 243 243 244 246 249 250 249 248 247 247 248 249 250 252 253 255 256 258 259 260 261 262 263 265 266 267 268
13 31 43 56 75 41 319 239 223 248 274 269 214 187 195 193 184 181 187 194 203 209 209 204 203 209 217 223 223 222 221 220 220 221 224 225 226 227 228 229 231 231 231 229 228 228 228 225 225 231 240 246 246 246 246 245 245 247 248 248 249 250 250 251 252 252 251 250 250 251 252 253 254 255 256 256 257 258 259 260 262 263 264 266 267 268 269
354 3 11 25 73 116 147 199 222 243 260 253 218 198 204 207 196 186 184 186 185 186 190 194 199 206 215 222 224 224 224 223 223 224 224 224 223 224 224 224 226 228 231 230 228 227 227 227 227 231 236 240 242 247 252 254 253 253 254 254 256 256 255 253 252 253 254 255 257 258 258 259 259 259 259 259 260 261 262 263 264 265 265 267 268 269 270
341 346 349 350 1 59 120 152 181 205 222 219 205 199 205 215 214 207 203 202 198 192 191 194 200 206 212 219 222 222 221 221 223 225 227 226 225 221 218 216 219 225 230 232 232 231 230 229 229 232 237 240 243 247 252 253 251 249 249 250 252 254 253 251 252 254 258 261 262 261 259 259 259 260 261 262 262 263 264 264 265 266 267 268 269 271 274
334 334 334 333 331 333 351 131 153 163 174 187 195 198 201 206 209 210 209 206 202 199 200 203 205 208 212 217 220 220 220 220 220 221 222 224 225 222 216 213 215 222 228 230 231 232 233 233 233 236 240 245 248 250 252 252 250 248 247 248 250 253 255 256 258 261 263 265 266 265 263 263 262 263 264 265 266 266 267 267 268 269 270 271 272 275 278
330 327 325 323 319 314 310 305 271 174 167 172 182 191 197 200 203 206 207 206 206 209 214 217 219 222 224 221 215 213 215 218 220 221 220 220 220 220 218 215 216 221 229 235 239 238 236 236 236 238 242 246 250 252 252 252 251 251 250 249 249 250 252 255 257 259 261 262 264 265 266 267 268 268 269 271 272 272 272 272 272 273 273 274 276 278 279
324 322 319 316 312 306 299 292 286 273 238 199 187 189 195 199 203 205 206 206 208 213 219 224 228 232 232 224 214 208 207 208 210 214 218 219 220 221 222 222 222 223 227 234 241 245 246 245 244 244 244 245 247 249 250 251 252 253 253 251 250 249 250 251 254 256 257 258 258 260 261 264 266 267 269 270 270 271 271 272 272 273 274 275 276 277 278
313 315 314 308 302 297 294 290 283 275 265 252 230 210 204 203 204 207 211 211 209 211 214 219 222 223 221 216 211 210 211 210 207 207 211 216 219 222 225 227 228 229 230 233 238 244 248 251 251 251 249 247 246 247 248 250 251 253 253 252 252 252 252 252 253 254 255 256 257 258 258 259 261 262 263 264 265 267 268 269 270 272 273 275 276 277 277
302 305 308 305 298 290 285 285 282 277 271 264 255 244 232 220 211 209 211 213 215 215 215 214 214 213 211 208 209 212 217 220 220 217 215 216 219 222 225 228 230 232 234 236 239 242 246 248 250 252 253 253 253 253 253 254 255 255 256 256 256 256 255 255 255 255 256 257 258 259 260 261 262 263 264 265 267 268 270 271 272 273 275 276 276 277 278
294 296 297 298 297 292 285 279 277 277 275 271 264 255 247 239 230 222 216 214 214 217 219 220 220 218 216 215 218 223 226 228 228 227 226 225 225 227 229 232 234 237 238 240 242 243 245 247 249 252 254 256 256 256 256 255 255 255 255 256 256 256 256 257 257 257 257 258 258 260 261 262 263 264 265 267 268 270 271 272 274 276 276 276 276 276 277
Height
5724 5731 5736 5738 5741 5746 5750 5754 5759 5766 5772 5776 5779 5783 5788 5792 5795 5800 5805 5809 5812 5815 5817 5819 5822 5824 5825 5827 5829 5831 5834 5836 5840 5842 5844 5847 5849 5852 5854 5856 5859 5862 5864 5867 5870 5873 5876 5878 5880 5882 5884 5886 5888 5890 5892 5893 5895 5897 5899 5901 5903 5904 5906 5908 5910 5911 5912 5914 5915 5916 5918 5919 5921 5922 5923 5924 5925 5926 5927 5928 5929 5930 5931 5931 5932 5933 5933
5721 5727 5730 5733 5737 5742 5747 5751 5757 5763 5769 5773 5777 5782 5786 5790 5793 5799 5803 5806 5810 5813 5815 5817 5820 5821 5822 5824 5826 5829 5831 5834 5837 5840 5842 5844 5847 5850 5852 5854 5857 5860 5862 5865 5868 5871 5874 5876 5878 5880 5883 5885 5887 5889 5891 5893 5894 5896 5897 5899 5901 5903 5904 5906 5907 5909 5910 5912 5913 5915 5916 5917 5918 5919 5920 5921 5922 5923 5924 5926 5927 5928 5929 5929 5930 5931 5931
5718 5722 5726 5731 5736 5739 5744 5750 5755 5761 5768 5772 5776 5780 5784 5787 5792 5796 5800 5802 5807 5811 5813 5815 5816 5817 5819 5821 5824 5826 5829 5832 5835 5838 5840 5842 5844 5847 5850 5852 5855 5858 5860 5863 5866 5869 5872 5874 5876 5879 5881 5884 5886 5888 5890 5892 5893 5895 5896 5898 5900 5901 5903 5904 5905 5907 5908 5910 5911 5913 5914 5915 5916 5917 5918 5919 5920 5921 5922 5923 5925 5926 5927 5928 5928 5929 5929
5713 5718 5724 5729 5733 5738 5744 5750 5755 5760 5765 5769 5774 5778 5783 5786 5790 5793 5797 5800 5803 5807 5809 5811 5812 5813 5815 5819 5822 5824 5827 5830 5834 5836 5838 5840 5842 5845 5848 5851 5853 5856 5858 5861 5864 5867 5870 5873 5875 5877 5880 5882 5884 5886 5888 5890 5892 5893 5895 5897 5898 5900 5901 5903 5904 5906 5907 5908 5909 5911 5912 5912 5913 5914 5915 5916 5917 5918 5920 5921 5922 5923 5925 5925 5926 5927 5927
5709 5716 5722 5725 5731 5737 5742 5746 5750 5754 5759 5765 5771 5776 5779 5782 5786 5790 5794 5798 5802 5803 5805 5807 5807 5808 5812 5816 5820 5823 5825 5828 5832 5835 5836 5838 5840 5843 5846 5849 5852 5855 5857 5860 5863 5866 5869 5871 5874 5876 5878 5880 5882 5885 5887 5888 5890 5892 5894 5895 5897 5899 5900 5902 5903 5905 5906 5907 5908 5909 5910 5910 5911 5911 5913 5914 5915 5916 5918 5918 5919 5921 5922 5923 5924 5925 5926
5704 5712 5717 5722 5728 5732 5734 5737 5742 5748 5754 5761 5765 5768 5771 5776 5782 5787 5792 5796 5799 5799 5800 5801 5802 5804 5808 5812 5817 5821 5824 5826 5830 5833 5834 5836 5838 5841 5844 5847 5849 5852 5855 5857 5860 5863 5866 5869 5871 5874 5876 5878 5880 5882 5884 5886 5888 5890 5892 5894 5896 5897 5899 5900 5902 5903 5904 5905 5906 5907 5907 5908 5908 5909 5911 5912 5913 5914 5915 5916 5917 5919 5920 5921 5922 5923 5924
5700 5708 5713 5716 5721 5724 5727 5732 5737 5741 5748 5755 5760 5764 5769 5775 5780 5784 5788 5792 5793 5794 5795 5797 5799 5802 5805 5809 5815 5819 5821 5824 5828 5830 5831 5833 5835 5838 5841 5844 5846 5849 5852 5854 5857 5860 5863 5865 5867 5870 5872 5875 5877 5879 5882 5884 5886 5888 5890 5892 5894 5896 5897 5899 5900 5901 5902 5903 5904 5904 5905 5906 5906 5907 5908 5909 5910 5911 5912 5913 5915 5916 5917 5918 5920 5921 5921
5697 5704 5707 5710 5714 5718 5722 5728 5733 5737 5744 5750 5757 5764 5769 5773 5777 5781 5783 5785 5786 5788 5791 5794 5796 5798 5802 5807 5812 5816 5819 5822 5825 5827 5829 5831 5833 5836 5838 5841 5844 5846 5849 5852 5855 5857 5859 5861 5864 5866 5869 5871 5874 5876 5879 5882 5884 5886 5888 5890 5892 5894 5895 5897 5898 5899 5900 5900 5901 5902 5903 5904 5904 5905 5906 5907 5907 5908 5909 5910 5911 5913 5914 5916 5917 5918 5919
5691 5698 5704 5708 5712 5715 5719 5723 5728 5734 5741 5747 5753 5760 5766 5770 5774 5777 5777 5778 5780 5784 5789 5792 5794 5795 5800 5805 5809 5812 5815 5819 5822 5825 5826 5828 5831 5833 5835 5838 5841 5843 5846 5849 5851 5854 5856 5858 5861 5863 5866 5868 5871 5873 5876 5878 5881 5883 5885 5887 5890 5891 5893 5894 5895 5896 5897 5898 5899 5899 5900 5901 5902 5903 5903 5904 5904 5905 5906 5908 5909 5910 5911 5913 5914 5915 5916
5685 5694 5701 5705 5709 5712 5714 5718 5723 5730 5738 5743 5747 5753 5760 5766 5769 5771 5772 5775 5778 5782 5786 5790 5792 5794 5798 5802 5805 5808 5812 5815 5818 5821 5824 5826 5828 5831 5833 5835 5838 5840 5842 5845 5848 5850 5853 5856 5858 5861 5863 5866 5868 5870 5873 5875 5877 5880 5882 5884 5887 5889 5890 5892 5893 5894 5894 5895 5896 5897 5898 5899 5900 5900 5901 5901 5901 5902 5904 5905 5906 5907 5908 5909 5910 5912 5913
5682 5690 5695 5698 5703 5708 5711 5714 5720 5728 5734 5740 5744 5749 5754 5760 5763 5765 5768 5771 5775 5779 5783 5786 5789 5792 5795 5797 5800 5805 5808 5812 5814 5817 5820 5823 5825 5828 5830 5833 5835 5837 5840 5842 5844 5847 5849 5852 5855 5857 5859 5862 5864 5867 5869 5871 5874 5876 5879 5882 5883 5885 5887 5888 5890 5891 5892 5893 5894 5894 5895 5896 5897 5897 5898 5898 5899 5900 5901 5903 5904 5904 5905 5906 5908 5909 5911
5679 5686 5689 5693 5699 5705 5707 5711 5717 5723 5729 5736 5742 5745 5748 5754 5757 5760 5763 5767 5772 5776 5779 5782 5786 5789 5791 5794 5797 5801 5805 5808 5811 5813 5816 5819 5822 5826 5828 5830 5832 5835 5837 5839 5841 5843 5846 5849 5851 5853 5856 5858 5861 5863 5865 5867 5870 5873 5876 5877 5879 5881 5882 5884 5886 5888 5889 5891 5891 5892 5893 5893 5894 5895 5895 5896 5896 5897 5898 5899 5901 5902 5903 5904 5906 5907 5908
5675 5681 5685 5690 5698 5703 5704 5707 5713 5718 5724 5732 5737 5739 5742 5748 5752 5755 5758 5763 5768 5773 5776 5778 5782 5785 5788 5791 5795 5798 5802 5806 5809 5812 5814 5816 5820 5823 5825 5827 5830 5832 5835 5837 5839 5840 5843 5845 5847 5850 5852 5855 5857 5859 5862 5864 5867 5870 5871 5873 5874 5876 5878 5880 5882 5884 5886 5887 5889 5890 5890 5890 5891 5892 5893 5894 5894 5895 5895 5896 5897 5899 5900 5901 5903 5904 5905
5673 5677 5681 5687 5695 5700 5702 5703 5708 5714 5719 5724 5730 5735 5739 5743 5746 5749 5755 5760 5765 5769 5772 5775 5778 5782 5785 5789 5793 5797 5800 5804 5807 5810 5812 5814 5817 5821 5823 5825 5827 5830 5832 5834 5836 5838 5840 5842 5844 5846 5848 5851 5853 5855 5858 5860 5863 5865 5867 5869 5871 5873 5875 5877 5878 5880 5882 5884 5885 5886 5887 5888 5889 5889 5890 5891 5892 5893 5893 5894 5895 5896 5897 5898 5899 5900 5901
5668 5672 5677 5683 5689 5695 5698 5700 5703 5709 5715 5720 5727 5732 5736 5740 5743 5746 5752 5758 5762 5765 5769 5772 5775 5779 5783 5787 5791 5795 5798 5802 5805 5807 5810 5813 5815 5818 5821 5822 5824 5827 5830 5831 5833 5835 5837 5839 5841 5843 5845 5847 5849 5851 5853 5856 5858 5861 5863 5865 5867 5868 5870 5872 5874 5876 5877 5879 5881 5882 5884 5885 5886 5886 5887 5888 5890 5891 5891 5892 5892 5893 5894 5895 5896 5897 5898
5664 5668 5672 5678 5684 5690 5694 5696 5698 5703 5710 5717 5724 5728 5730 5734 5739 5744 5749 5754 5758 5762 5766 5769 5772 5776 5780 5783 5787 5791 5795 5799 5802 5805 5807 5810 5812 5814 5817 5819 5821 5823 5826 5828 5830 5832 5834 5836 5838 5840 5841 5843 5845 5847 5850 5852 5854 5856 5858 5860 5862 5864 5866 5867 5869 5871 5872 5874 5875 5877 5879 5881 5882 5883 5884 5885 5887 5888 5889 5889 5890 5891 5892 5892 5894 5895 5895
5664 5666 5669 5675 5681 5685 5688 5691 5694 5699 5705 5712 5719 5723 5725 5726 5731 5738 5744 5749 5754 5758 5761 5764 5768 5772 5776 5779 5782 5786 5790 5794 5798 5802 5804 5807 5809 5810 5812 5815 5817 5819 5821 5824 5826 5828 5830 5833 5835 5837 5839 5840 5842 5844 5846 5848 5850 5852 5853 5855 5857 5859 5861 5862 5864 5866 5867 5869 5870 5872 5874 5876 5878 5879 5881 5881 5883 5884 5885 5886 5887 5888 5889 5890 5891 5891 5892
5662 5664 5667 5673 5677 5678 5682 5688 5692 5696 5703 5708 5712 5717 5719 5720 5723 5729 5737 5744 5749 5753 5756 5759 5763 5767 5771 5775 5778 5782 5786 5790 5794 5797 5801 5804 5806 5807 5809 5811 5813 5815 5817 5820 5822 5824 5827 5829 5832 5834 5836 5837 5839 5841 5842 5844 5846 5848 5849 5851 5853 5854 5856 5858 5860 5861 5862 5864 5866 5867 5869 5871 5873 5875 5877 5877 5879 5880 5881 5883 5884 5885 5886 5887 5887 5888 5889
5656 5660 5664 5669 5670 5671 5678 5686 5690 5693 5699 5703 5707 5711 5713 5715 5718 5723 5729 5737 5743 5747 5751 5755 5758 5762 5766 5770 5774 5777 5782 5786 5789 5793 5797 5800 5802 5804 5805 5807 5810 5811 5813 5816 5819 5821 5823 5826 5828 5830 5832 5834 5836 5837 5839 5841 5842 5844 5846 5847 5849 5851 5852 5854 5855 5857 5858 5859 5861 5862 5864 5866 5868 5870 5872 5873 5874 5876 5877 5879 5880 5881 5882 5883 5884 5885 5885
5649 5655 5659 5662 5662 5667 5677 5685 5688 5690 5694 5698 5702 5706 5708 5711 5716 5720 5723 5729 5736 5741 5745 5749 5753 5757 5761 5765 5769 5773 5777 5781 5785 5789 5793 5796 5797 5799 5801 5803 5806 5808 5809 5812 5815 5817 5819 5822 5824 5827 5829 5831 5833 5834 5836 5837 5839 5841 5843 5844 5846 5847 5848 5850 5851 5853 5854 5855 5856 5858 5859 5861 5863 5865 5866 5868 5870 5871 5873 5874 5875 5877 5878 5879 5879 5880 5880
5643 5649 5654 5658 5661 5666 5675 5681 5684 5688 5692 5695 5699 5702 5704 5707 5712 5717 5721 5725 5730 5736 5740 5744 5748 5753 5756 5760 5764 5769 5772 5776 5780 5785 5788 5791 5793 5795 5798 5800 5802 5804 5806 5808 5810 5813 5815 5818 5820 5824 5826 5828 5830 5831 5833 5834 5836 5838 5840 5841 5843 5844 5845 5847 5848 5849 5850 5852 5853 5854 5856 5857 5859 5860 5862 5863 5865 5867 5868 5869 5870 5872 5873 5873 5875 5875 5876
5638 5643 5649 5654 5658 5663 5670 5676 5681 5685 5690 5693 5698 5701 5703 5705 5709 5713 5717 5721 5726 5732 5736 5740 5745 5749 5752 5756 5760 5764 5768 5771 5775 5780 5783 5787 5790 5792 5794 5796 5798 5800 5802 5804 5806 5809 5811 5814 5816 5819 5822 5824 5826 5828 5829 5831 5833 5835 5836 5838 5839 5841 5842 5843 5845 5846 5847 5848 5850 5851 5852 5853 5855 5856 5857 5859 5860 5862 5863 5864 5865 5866 5867 5868 5870 5871 5871
5638 5642 5646 5651 5656 5663 5669 5673 5678 5684 5688 5691 5695 5699 5703 5706 5708 5710 5714 5718 5722 5728 5732 5737 5741 5745 5749 5752 5756 5760 5763 5766 5770 5774 5778 5782 5785 5788 5790 5792 5794 5796 5799 5801 5803 5805 5807 5809 5812 5815 5817 5820 5822 5824 5826 5827 5829 5831 5833 5834 5836 5837 5839 5840 5841 5842 5844 5845 5846 5847 5848 5849 5851 5852 5853 5855 5856 5857 5858 5859 5860 5861 5862 5863 5865 5865 5866
5641 5644 5647 5651 5657 5664 5669 5671 5675 5681 5685 5688 5691 5695 5700 5704 5707 5708 5710 5713 5717 5723 5727 5732 5737 5742 5745 5748 5751 5755 5758 5761 5764 5768 5772 5776 5780 5783 5785 5788 5790 5792 5794 5797 5799 5801 5803 5805 5808 5810 5813 5815 5818 5819 5821 5823 5825 5827 5828 5830 5832 5833 5834 5836 5837 5838 5840 5841 5842 5843 5844 5846 5847 5848 5849 5850 5851 5852 5853 5854 5855 5856 5857 5858 5859 5860 5861
5643 5646 5649 5652 5659 5665 5669 5670 5674 5678 5681 5684 5687 5691 5695 5701 5705 5707 5709 5710 5713 5717 5722 5727 5732 5737 5740 5744 5746 5750 5753 5757 5760 5763 5766 5770 5773 5777 5780 5783 5785 5788 5790 5792 5795 5798 5800 5801 5804 5806 5809 5811 5813 5815 5817 5819 5821 5822 5824 5826 5827 5828 5830 5831 5833 5834 5835 5837 5838 5839 5840 5841 5842 5844 5845 5845 5846 5847 5848 5849 5850 5851 5852 5853 5854 5855 5855
5645 5648 5649 5652 5659 5666 5669 5670 5674 5676 5677 5679 5683 5686 5690 5695 5701 5705 5708 5709 5710 5714 5718 5722 5727 5732 5736 5739 5742 5745 5749 5752 5755 5759 5761 5764 5767 5771 5775 5778 5780 5783 5785 5788 5791 5794 5796 5798 5800 5802 5804 5806 5808 5811 5813 5815 5816 5818 5820 5821 5823 5824 5826 5827 5828 5830 5831 5832 5834 5835 5836 5837 5838 5839 5840 5841 5842 5843 5843 5844 5845 5846 5847 5848 5848 5849 5849
5645 5647 5648 5651 5658 5665 5668 5670 5672 5673 5674 5676 5679 5682 5686 5690 5695 5699 5703 5706 5709 5711 5713 5717 5721 5725 5730 5734 5737 5741 5744 5747 5750 5754 5756 5759 5762 5765 5769 5773 5775 5778 5781 5783 5786 5789 5792 5794 5796 5798 5799 5801 5804 5806 5808 5810 5812 5814 5815 5817 5819 5820 5821 5823 5824 5825 5826 5827 5829 5830 5831 5832 5833 5834 5835 5836 5837 5838 5839 5839 5840 5841 5842 5842 5843 5843 5844
5640 5642 5642 5647 5655 5660 5661 5664 5667 5669 5671 5674 5676 5678 5682 5686 5690 5693 5697 5700 5703 5706 5709 5712 5716 5720 5725 5729 5733 5736 5739 5743 5746 5749 5752 5755 5758 5760 5763 5767 5770 5773 5776 5778 5781 5784 5787 5790 5792 5793 5795 5797 5799 5801 5803 5805 5807 5809 5810 5812 5814 5815 5817 5818 5819 5820 5821 5823 5824 5825 5826 5827 5828 5829 5830 5832 5832 5833 5834 5835 5835 5836 5836 5837 5837 5838 5838
5635 5637 5638 5643 5648 5649 5650 5655 5660 5663 5666 5668 5670 5674 5678 5681 5684 5689 5692 5694 5697 5699 5702 5706 5711 5716 5721 5725 5729 5732 5735 5738 5741 5744 5747 5751 5753 5756 5758 5761 5765 5768 5770 5773 5776 5779 5782 5785 5787 5789 5791 5792 5793 5795 5798 5800 5802 5804 5805 5806 5808 5810 5811 5813 5814 5815 5816 5817 5818 5819 5821 5822 5823 5824 5825 5827 5828 5829 5829 5829 5830 5830 5831 5831 5832 5832 5832
5626 5628 5631 5636 5639 5639 5642 5649 5654 5656 5658 5660 5663 5668 5671 5674 5679 5683 5686 5688 5691 5693 5696 5700 5705 5710 5715 5720 5724 5727 5729 5732 5736 5739 5742 5746 5749 5752 5754 5756 5759 5762 5765 5768 5771 5774 5777 5779 5782 5784 5786 5787 5789 5790 5792 5794 5796 5798 5800 5801 5802 5804 5806 5807 5808 5810 5811 5812 5814 5815 5816 5817 5818 5819 5820 5821 5823 5823 5824 5824 5824 5825 5825 5825 5826 5826 5826
5618 5619 5620 5622 5624 5628 5636 5643 5647 5648 5650 5653 5656 5661 5664 5667 5671 5676 5679 5681 5684 5687 5690 5694 5699 5704 5710 5715 5718 5720 5723 5726 5730 5734 5737 5740 5743 5747 5749 5751 5754 5757 5760 5763 5766 5769 5772 5774 5776 5778 5780 5782 5784 5786 5787 5789 5791 5792 5794 5795 5796 5798 5800 5801 5803 5804 5806 5807 5808 5810 5811 5812 5813 5814 5815 5816 5816 5817 5817 5817 5818 5818 5818 5819 5819 5820 5820
5614 5613 5612 5611 5612 5616 5624 5632 5636 5640 5643 5645 5649 5654 5657 5660 5663 5667 5670 5674 5678 5680 5682 5687 5692 5697 5703 5709 5713 5715 5717 5721 5725 5728 5732 5735 5738 5741 5744 5747 5749 5752 5756 5759 5762 5764 5767 5769 5771 5773 5775 5777 5779 5781 5782 5783 5785 5786 5788 5789 5791 5792 5794 5795 5797 5798 5800 5801 5802 5803 5805 5806 5807 5808 5809 5809 5809 5810 5810 5810 5811 5811 5811 5812 5812 5812 5812
5609 5608 5607 5606 5606 5608 5613 5619 5624 5629 5632 5636 5640 5645 5649 5651 5655 5659 5663 5668 5671 5673 5676 5680 5686 5691 5697 5702 5706 5710 5713 5716 5719 5722 5726 5729 5732 5735 5739 5742 5745 5747 5751 5754 5757 5759 5761 5763 5765 5767 5769 5771 5773 5775 5777 5778 5779 5781 5782 5784 5785 5786 5787 5789 5790 5792 5793 5794 5795 5796 5798 5799 5800 5801 5801 5802 5802 5802 5803 5803 5804 5804 5804 5804 5804 5804 5804
5604 5603 5603 5603 5603 5604 5607 5611 5615 5618 5622 5626 5631 5637 5641 5646 5650 5653 5657 5661 5664 5667 5671 5676 5681 5685 5691 5696 5700 5704 5707 5710 5713 5717 5720 5723 5727 5730 5734 5737 5740 5743 5745 5748 5751 5754 5756 5758 5759 5761 5763 5766 5768 5769 5771 5773 5774 5775 5776 5778 5778 5780 5781 5782 5783 5785 5786 5786 5787 5789 5790 5791 5792 5793 5794 5794 5795 5795 5795 5796 5796 5797 5796 5796 5797 5797 5797
5601 5600 5600 5600 5601 5602 5603 5606 5608 5611 5614 5617 5622 5627 5634 5639 5644 5648 5651 5655 5658 5662 5667 5672 5674 5678 5684 5690 5695 5698 5701 5704 5708 5711 5715 5718 5721 5725 5729 5732 5735 5738 5740 5742 5744 5747 5750 5752 5753 5754 5755 5759 5762 5763 5764 5766 5768 5770 5771 5772 5772 5773 5774 5775 5776 5778 5779 5779 5780 5781 5782 5783 5784 5785 5786 5786 5786 5786 5787 5787 5788 5789 5789 5790 5790 5790 5790
5600 5598 5598 5598 5598 5599 5600 5602 5604 5606 5609 5611 5615 5619 5624 5630 5635 5640 5645 5648 5652 5657 5663 5666 5667 5671 5677 5684 5688 5692 5695 5698 5702 5706 5709 5713 5716 5720 5724 5727 5729 5732 5734 5736 5738 5740 5742 5744 5747 5747 5747 5750 5754 5756 5757 5758 5761 5763 5764 5765 5766 5766 5767 5768 5769 5770 5771 5772 5773 5774 5774 5775 5776 5776 5777 5778 5778 5778 5779 5779 5780 5781 5782 5782 5783 5783 5783
5599 5597 5596 5596 5596 5596 5597 5599 5601 5602 5605 5607 5610 5613 5617 5621 5625 5630 5635 5640 5645 5651 5656 5660 5662 5665 5670 5675 5681 5685 5689 5692 5696 5699 5703 5706 5710 5714 5718 5721 5723 5725 5728 5731 5732 5733 5734 5735 5738 5740 5740 5742 5746 5748 5749 5750 5752 5754 5755 5756 5757 5758 5759 5760 5761 5763 5764 5764 5765 5766 5766 5767 5767 5768 5768 5769 5770 5770 5771 5772 5773 5773 5774 5774 5774 5774 5774
5598 5596 5595 5594 5594 5594 5594 5596 5597 5599 5600 5602 5605 5608 5611 5615 5619 5623 5626 5630 5636 5643 5649 5654 5657 5660 5664 5669 5674 5678 5682 5686 5690 5693 5696 5699 5703 5706 5710 5714 5716 5718 5721 5723 5725 5726 5727 5727 5730 5732 5734 5735 5737 5739 5741 5742 5742 5743 5744 5746 5748 5749 5751 5752 5753 5754 5755 5756 5756 5757 5757 5758 5759 5760 5760 5761 5762 5763 5764 5764 5764 5765 5765 5765 5766 5766 5766
5598 5596 5595 5594 5593 5593 5593 5594 5595 5596 5597 5599 5601 5603 5606 5609 5612 5615 5618 5622 5628 5635 5641 5646 5650 5654 5657 5661 5665 5669 5674 5678 5682 5685 5688 5692 5695 5698 5701 5705 5709 5711 5713 5715 5717 5719 5721 5721 5722 5725 5726 5728 5729 5731 5732 5732 5731 5731 5732 5734 5736 5738 5740 5742 5743 5744 5745 5747 5747 5748 5749 5750 5751 5752 5753 5754 5754 5755 5755 5756 5756 5756 5756 5756 5757 5757 5757
5598 5597 5595 5594 5593 5592 5592 5592 5593 5594 5595 5596 5598 5600 5601 5603 5605 5608 5611 5615 5620 5626 5631 5636 5640 5644 5648 5652 5656 5660 5665 5669 5673 5677 5681 5685 5687 5690 5693 5697 5701 5704 5706 5708 5710 5713 5715 5716 5716 5717 5717 5718 5720 5723 5724 5725 5723 5721 5721 5723 5725 5726 5728 5731 5734 5735 5736 5737 5738 5740 5741 5742 5743 5744 5745 5746 5746 5746 5746 5747 5747 5748 5748 5748 5748 5748 5748
5599 5598 5596 5595 5594 5593 5592 5592 5592 5593 5594 5595 5596 5597 5598 5599 5600 5602 5606 5610 5614 5619 5623 5627 5631 5635 5640 5644 5648 5652 5656 5660 5664 5669 5673 5677 5679 5682 5685 5688 5691 5695 5698 5701 5704 5707 5710 5713 5713 5711 5707 5705 5707 5710 5713 5714 5713 5711 5712 5715 5717 5719 5721 5724 5726 5727 5728 5729 5730 5732 5733 5734 5735 5736 5736 5737 5737 5737 5738 5738 5739 5739 5739 5739 5739 5739 5740
5601 5599 5597 5596 5595 5594 5593 5592 5592 5593 5594 5595 5595 5595 5596 5596 5597 5599 5602 5606 5610 5614 5618 5622 5625 5629 5633 5636 5640 5644 5648 5652 5656 5660 5664 5668 5671 5674 5677 5679 5682 5686 5690 5693 5696 5700 5703 5706 5707 5704 5700 5697 5698 5699 5701 5703 5703 5703 5705 5709 5711 5712 5714 5716 5717 5718 5719 5721 5722 5723 5724 5725 5726 5726 5727 5728 5728 5729 5729 5730 5730 5731 5731 5731 5731 5732 5732
5601 5600 5598 5597 5596 5595 5594 5594 5593 5593 5593 5594 5594 5594 5594 5595 5595 5597 5600 5603 5606 5609 5613 5617 5621 5624 5627 5630 5633 5637 5641 5645 5648 5651 5654 5658 5662 5665 5668 5671 5675 5678 5681 5684 5688 5691 5694 5697 5698 5696 5694 5694 5696 5695 5696 5697 5697 5698 5701 5703 5704 5705 5706 5708 5709 5709 5711 5712 5713 5714 5715 5716 5717 5718 5719 5720 5720 5721 5721 5722 5722 5723 5723 5723 5724 5724 5724
5601 5600 5599 5598 5597 5596 5595 5595 5594 5594 5593 5593 5593 5594 5595 5595 5595 5596 5598 5601 5604 5607 5610 5615 5619 5622 5624 5626 5629 5632 5635 5638 5641 5643 5646 5650 5654 5657 5660 5663 5667 5670 5673 5676 5678 5681 5684 5686 5688 5687 5687 5689 5692 5692 5691 5692 5693 5695 5697 5698 5699 5700 5701 5702 5702 5703 5704 5705 5706 5707 5708 5709 5710 5711 5711 5712 5713 5713 5713 5714 5714 5715 5715 5715 5715 5715 5714
5601 5600 5599 5598 5597 5597 5596 5595 5595 5594 5594 5594 5594 5594 5595 5595 5596 5597 5599 5601 5604 5607 5610 5614 5617 5620 5622 5625 5627 5630 5633 5635 5638 5640 5642 5645 5648 5652 5655 5658 5661 5664 5667 5669 5671 5673 5675 5677 5678 5679 5681 5683 5685 5685 5686 5688 5689 5690 5691 5692 5693 5694 5695 5695 5696 5697 5698 5699 5700 5700 5701 5701 5702 5702 5703 5703 5704 5704 5704 5705 5705 5705 5706 5705 5705 5704 5704
5600 5600 5599 5598 5597 5596 5596 5595 5594 5594 5594 5594 5594 5595 5595 5595 5596 5598 5599 5601 5604 5607 5610 5613 5616 5619 5621 5623 5625 5627 5630 5632 5635 5637 5640 5642 5644 5647 5650 5654 5657 5660 5662 5664 5666 5667 5669 5670 5671 5673 5675 5676 5677 5679 5681 5683 5683 5683 5684 5685 5686 5686 5687 5688 5689 5691 5692 5692 5692 5692 5692 5692 5693 5694 5694 5695 5695 5695 5695 5696 5696 5696 5696 5696 5695 5695 5694
5600 5599 5598 5597 5596 5595 5595 5594 5594 5593 5593 5593 5594 5595 5595 5595 5596 5598 5599 5601 5603 5606 5609 5612 5614 5616 5618 5620 5622 5624 5626 5628 5630 5632 5634 5637 5639 5641 5645 5648 5650 5653 5655 5657 5660 5662 5663 5664 5666 5667 5669 5670 5671 5673 5675 5677 5677 5677 5678 5679 5679 5679 5679 5680 5681 5683 5683 5684 5684 5684 5684 5684 5685 5686 5686 5687 5687 5687 5687 5687 5687 5686 5686 5686 5686 5686 5685
5599 5598 5597 5596 5595 5594 5593 5592 5592 5592 5592 5593 5593 5594 5594 5595 5596 5597 5598 5600 5602 5604 5606 5608 5609 5611 5614 5617 5619 5620 5622 5623 5625 5627 5629 5631 5634 5636 5639 5642 5645 5647 5649 5651 5653 5655 5657 5659 5661 5662 5664 5665 5666 5667 5668 5669 5670 5671 5671 5672 5673 5673 5673 5674 5675 5675 5676 5676 5677 5677 5677 5677 5677 5678 5678 5679 5678 5678 5678 5678 5678 5678 5677 5677 5677 5677 5676
5597 5597 5596 5595 5594 5593 5592 5591 5590 5590 5591 5591 5591 5592 5593 5594 5595 5595 5597 5598 5600 5602 5603 5604 5605 5607 5610 5613 5615 5617 5618 5620 5621 5623 5625 5627 5629 5631 5634 5637 5641 5643 5645 5646 5647 5649 5650 5653 5655 5657 5658 5659 5660 5661 5662 5663 5664 5664 5665 5665 5666 5666 5667 5667 5668 5668 5668 5669 5670 5670 5670 5671 5671 5670 5670 5670 5670 5670 5669 5669 5669 5669 5669 5669 5668 5668 5667
5595 5594 5594 5593 5593 5592 5591 5590 5589 5589 5589 5589 5589 5590 5591 5592 5593 5594 5595 5596 5597 5599 5600 5601 5602 5604 5606 5609 5611 5613 5615 5617 5618 5619 5621 5623 5625 5628 5630 5633 5636 5638 5640 5641 5642 5643 5645 5646 5647 5649 5650 5652 5653 5654 5655 5656 5657 5658 5658 5658 5659 5659 5659 5660 5660 5661 5661 5662 5662 5663 5663 5663 5664 5664 5663 5663 5662 5662 5661 5661 5661 5662 5662 5661 5660 5659 5658
5592 5592 5591 5591 5590 5590 5590 5589 5588 5588 5587 5587 5588 5588 5588 5589 5590 5591 5592 5593 5594 5596 5597 5598 5599 5601 5603 5605 5607 5609 5611 5613 5614 5615 5616 5618 5621 5623 5626 5628 5630 5633 5635 5636 5638 5639 5640 5641 5642 5643 5644 5645 5646 5647 5648 5649 5650 5651 5651 5652 5652 5652 5653 5653 5653 5653 5654 5654 5654 5655 5655 5656 5657 5657 5656 5655 5654 5654 5653 5653 5654 5655 5655 5654 5652 5651 5651
5589 5589 5588 5588 5587 5587 5587 5587 5587 5587 5587 5586 5586 5586 5587 5587 5588 5589 5589 5590 5591 5592 5593 5594 5596 5597 5599 5601 5603 5605 5606 5608 5609 5610 5611 5613 5616 5618 5621 5623 5626 5628 5629 5631 5633 5634 5635 5636 5637 5638 5638 5639 5640 5641 5642 5642 5643 5644 5645 5645 5645 5645 5645 5645 5646 5646 5646 5647 5647 5648 5649 5649 5650 5649 5649 5648 5647 5646 5645 5645 5646 5647 5646 5645 5645 5644 5643